This is the latest recevied weather packets stored in our database for station/object KI4FRU. If no packets are shown the sender has not sent any weather packets the latest 10 day(s).
| Time | Temp. | Humidity | Pressure | Rain* | Wind** | Luminosity | Snow |
|---|---|---|---|---|---|---|---|
| 1777820165 | 13.33° C | 54% | 1059.4 hPa | 0 mm | - | 29 W/m² | - |
| 1777819863 | 12.78° C | 54% | 1059.5 hPa | 0 mm | - | 33 W/m² | - |
| 1777819560 | 12.78° C | 54% | 1059.5 hPa | 0 mm | - | 33 W/m² | - |
| 1777819257 | 12.78° C | 59% | 1059.5 hPa | 0 mm | - | 32 W/m² | - |
| 1777818954 | 12.22° C | 57% | 1059.4 hPa | 0 mm | - | 197 W/m² | - |
| 1777818650 | 12.22° C | 59% | 1059.4 hPa | 0 mm | - | 53 W/m² | - |
| 1777818348 | 12.22° C | 60% | 1059.3 hPa | 0 mm | - | 34 W/m² | - |
| 1777818044 | 12.22° C | 61% | 1059.4 hPa | 0 mm | - | 34 W/m² | - |
| 1777817741 | 12.22° C | 64% | 1059.3 hPa | 0 mm | - | 30 W/m² | - |
| 1777817439 | 12.22° C | 60% | 1059.6 hPa | 0 mm | - | 20 W/m² | - |
| 1777817134 | 12.22° C | 60% | 1059.5 hPa | 0 mm | - | 24 W/m² | - |
| 1777816832 | 12.22° C | 63% | 1059.5 hPa | 0 mm | - | 27 W/m² | - |
| 1777816529 | 12.22° C | 65% | 1059.3 hPa | 0 mm | - | 33 W/m² | - |
| 1777816226 | 11.67° C | 69% | 1059.3 hPa | 0 mm | - | 26 W/m² | - |
| 1777815924 | 11.67° C | 66% | 1059.3 hPa | 0 mm | - | 30 W/m² | - |
| 1777815621 | 11.67° C | 69% | 1059.3 hPa | 0 mm | - | 24 W/m² | - |
| 1777815318 | 11.11° C | 70% | 1059.2 hPa | 0 mm | - | 27 W/m² | - |
| 1777815015 | 11.11° C | 76% | 1059.4 hPa | 0 mm | - | 24 W/m² | - |
| 1777814711 | 11.11° C | 73% | 1059.3 hPa | 0 mm | - | 27 W/m² | - |
| 1777814408 | 10.56° C | 72% | 1059.3 hPa | 0 mm | - | 28 W/m² | - |
| 1777814105 | 10.56° C | 80% | 1059.3 hPa | 0 mm | - | 27 W/m² | - |
| 1777813801 | 10.56° C | 83% | 1059.3 hPa | 0 mm | - | 27 W/m² | - |
| 1777813499 | 10.56° C | 82% | 1059.4 hPa | 0 mm | - | 26 W/m² | - |
| 1777813196 | 10° C | 81% | 1059.4 hPa | 0 mm | - | 27 W/m² | - |
| 1777812894 | 9.44° C | 85% | 1059.2 hPa | 0 mm | - | 28 W/m² | - |
* Rain latest hour (hover to see other rain measurements)
** Current wind speed in m/s (hover to see current wind gust speed)